Simultaneous Nadir Overpasses (SNOs) Predictions

Prediction of SNOs between LANDSAT-8 and NOAA-19 Satellite Orbit:

Table of predicted SNOs for the next 14.0 days since TLE Epoch: 8/10/2024
Index Date (LANDSAT-8) Time (LANDSAT-8) Lat,Lon (LANDSAT-8) SZA (LANDSAT-8 ) Date (NOAA-19) Time (NOAA-19) Lat,Lon (NOAA-19) SZA (NOAA-19 ) Distance(km) Time Diff (sec)
1 08/12/2024 06:11:02 80.58, 120.33 67.22 08/12/2024 06:11:17 80.59, 120.35 67.23 0.52 15
2 08/14/2024 12:34:15 80.57, 24.41 67.91 08/14/2024 12:34:05 80.57, 24.32 67.89 1.75 10
3 08/16/2024 18:57:27 80.57, -71.45 68.62 08/16/2024 18:56:52 80.56, -71.48 68.60 0.98 35
4 08/16/2024 19:46:53 -80.60, 96.53 111.32 08/16/2024 19:47:46 -80.60, 96.68 111.28 2.79 53
5 08/19/2024 01:20:39 80.53,-167.58 69.30 08/19/2024 01:19:40 80.53,-167.74 69.26 3.15 59
6 08/19/2024 02:10:05 -80.57, 0.41 110.63 08/19/2024 02:10:35 -80.56, 0.26 110.64 2.77 30
7 08/21/2024 08:33:15 -80.57, -95.32 109.86 08/21/2024 08:33:21 -80.57, -95.23 109.85 1.72 6



Historial Predications of SNOs between LANDSAT-8 and NOAA-19
